Hourly Weather Roundup
Issued by NWS Central Illinois

Home | Current Version | Previous Version | Text Only | Print | Product List | Glossary On
Versions: 1 2 3 4 5 6 7 8 9 10 11 12 13 14 15 16 17 18 19 20 21 22 23 24 25 26 27 28 29 30 31 32 33 34 35 36 37 38 39 40 41 42 43 44 45 46 47 48 49 50
000
NZUS43 KILX 190410
HWRILX

Area Weather Roundup
National Weather Service Lincoln IL
1000 PM CST THU JAN 18 2018

NOTE:  "FAIR" indicates few or no clouds below 12,000 feet, with
       no sigificant weather and/or obstructions to visibility.


CITY           SKY/WX    TMP DP  RH WIND       PRES   REMARKS
Bloomington    FAIR      28  21  74 SW17      30.05F WCI  16
Champaign      FAIR      24  18  77 S17       30.10S WCI  11
Danville       FAIR      25  15  66 S17G24    30.08S WCI  11
Decatur        FAIR      27  21  78 SW18      30.11S WCI  14
Effingham      FAIR      27  16  65 S9        30.19S WCI  17
Flora          FAIR      26  18  70 S14       30.21F WCI  14
Galesburg      FAIR      31  23  72 S12       30.03S WCI  21
Jacksonville   CLOUDY    34  18  51 SW10      30.09S WCI  26
Lacon          FAIR      32  20  61 SW9       30.03R WCI  24
Lawrenceville  FAIR      23  13  65 S16       30.23S WCI  10
Litchfield     CLEAR     26  21  81 S9        30.14S WCI  17
$$


CITY           SKY/WX    TMP DP  RH WIND       PRES   REMARKS
Lincoln        FAIR      30  24  78 S6        30.09S WCI  24
Macomb         CLOUDY    32  22  64 SW14      30.06R WCI  22
Mattoon        FAIR      24  15  68 S12       30.13S WCI  13
Mt Carmel AP   FAIR      24  13  62 SW13      30.23S WCI  12
Olney-Noble AP FAIR      25  12  57 S9        30.22F WCI  15
Paris AP       FAIR      24  15  68 S20       30.14F WCI  10
Peoria         FAIR      30  19  63 SW9       30.06R WCI  22
Pontiac        FAIR      28  23  81 SW8       30.05R WCI  20
Rantoul        FAIR      27  20  77 S9        30.09S WCI  17
Robinson       FAIR      24  13  62 SW12      30.22S WCI  13
Springfield    FAIR      30  21  69 S12       30.10S WCI  20
Taylorville    FAIR      27  21  76 S14       30.13R WCI  16
$$

...REGIONAL REPORTS...


CITY           SKY/WX    TMP DP  RH WIND       PRES   REMARKS
Chicago O`Hare FAIR      31  20  63 SW10      29.98R WCI  22
Kankakee       FAIR     N/A N/A N/A SW12G22   30.06R
Moline         FAIR      32  21  64 SW12      29.99S WCI  23
Mount Sterling CLOUDY    36  19  51 SW14G20   30.06S WCI  27
Mount Vernon   FAIR      25  19  78 S13       30.22F WCI  14
Pittsfield     CLOUDY    37  21  52 SW12      30.10R WCI  29
Quincy         CLOUDY    33  20  58 SW14      30.07R WCI  23
Rockford       FAIR      31  19  61 SW13      29.98F WCI  21
$$


CITY           SKY/WX    TMP DP  RH WIND       PRES   REMARKS
Burlington     CLOUDY    31  20  63 SW12      30.02R WCI  22
Cedar Rapids   FAIR      28  20  71 S8        29.94S WCI  20
Des Moines     CLOUDY    31  22  69 SW6       29.93F WCI  25
Kirksville     CLOUDY    32  22  66 SW13      30.04S WCI  22
Ottumwa        CLOUDY    32  20  61 SW15      29.96F WCI  22
St Louis       PTCLDY    37  16  42 SW9       30.15S WCI  30
$$


CITY           SKY/WX    TMP DP  RH WIND       PRES   REMARKS
Terre Haute    FAIR      24  11  57 S9        30.19S WCI  14
Evansville     FAIR      23  13  65 SW8       30.27F WCI  14
Indianapolis   FAIR      24  11  57 SW10      30.15F WCI  14
Lafayette      FAIR      24  14  65 SW12G18   30.11F WCI  13
Madison        FAIR      27  19  72 SW6       29.90F WCI  20
Milwaukee      MOCLDY    31  20  63 W14G25    29.90F WCI  21
$$






USA.gov is the U.S. government's official web portal to all federal, state and local government web resources and services.